| time (UTC) | temp C | wind direction | speed KPH | gust KPH | rain 1hr cm | rain 24hr cm | rain mn cm | humidity % | barometer mb |
| 20260504184016 | 26 | 225 | 19.3 | 32.2 | 0.00 | 0.00 | 0.00 | 36 | 1005.2 |
| 20260504183018 | 26 | 225 | 19.3 | 40.2 | 0.00 | 0.00 | 0.00 | 36 | 1005.0 |
| 20260504182012 | 26 | 248 | 16.1 | 40.2 | 0.00 | 0.00 | 0.00 | 36 | 1005.2 |
| 20260504180008 | 26 | 225 | 20.9 | 35.4 | 0.00 | 0.00 | 0.00 | 35 | 1005.1 |
| 20260504175008 | 26 | 248 | 19.3 | 32.2 | 0.00 | 0.00 | 0.00 | 35 | 1004.9 |
| 20260504173009 | 27 | 225 | 16.1 | 32.2 | 0.00 | 0.00 | 0.00 | 35 | 1005.3 |
| 20260504171012 | 25 | 248 | 11.3 | 32.2 | 0.00 | 0.00 | 0.00 | 41 | 1005.5 |
| 20260504151016 | 21 | 158 | 0.0 | 24.1 | 0.00 | 0.00 | 0.00 | 47 | 1006.8 |
| 20260504081011 | 10 | 203 | 3.2 | 12.9 | 0.00 | 0.00 | 0.00 | 59 | 1008.2 |
| 20260504050006 | 10 | 135 | 0.0 | 3.2 | 0.00 | 0.00 | 0.00 | 64 | 1010.2 |
| 20260504045010 | 10 | 135 | 1.6 | 3.2 | 0.00 | 0.00 | 0.00 | 64 | 1010.2 |
| 20260504044013 | 10 | 135 | 0.0 | 3.2 | 0.00 | 0.00 | 0.00 | 64 | 1010.4 |
| 20260504034011 | 9 | 135 | 0.0 | 3.2 | 0.00 | 0.00 | 0.00 | 65 | 1010.9 |
| 20260504031009 | 9 | 135 | 0.0 | 3.2 | 0.00 | 0.00 | 0.00 | 65 | 1011.2 |
| 20260504030011 | 9 | 135 | 0.0 | 9.7 | 0.00 | 0.00 | 0.00 | 64 | 1011.3 |
| 20260504024007 | 9 | 135 | 0.0 | 8.0 | 0.00 | 0.00 | 0.00 | 65 | 1011.3 |
| 20260504022015 | 8 | 158 | 0.0 | 4.8 | 0.00 | 0.00 | 0.00 | 67 | 1011.4 |
| 20260504020007 | 8 | 113 | 0.0 | 8.0 | 0.00 | 0.00 | 0.00 | 70 | 1011.5 |
| 20260504015006 | 8 | 113 | 0.0 | 8.0 | 0.00 | 0.00 | 0.00 | 69 | 1011.4 |
| 20260504014008 | 8 | 135 | 0.0 | 3.2 | 0.00 | 0.00 | 0.00 | 69 | 1011.5 |
| 20260504013009 | 8 | 135 | 0.0 | 1.6 | 0.00 | 0.00 | 0.00 | 68 | 1011.5 |
| 20260504005009 | 8 | 135 | 1.6 | 12.9 | 0.00 | 0.00 | 0.00 | 70 | 1011.3 |
| 20260504004011 | 8 | 135 | 3.2 | 12.9 | 0.00 | 0.00 | 0.00 | 70 | 1011.1 |
| 20260504003008 | 8 | 158 | 0.0 | 12.9 | 0.00 | 0.00 | 0.00 | 70 | 1011.6 |
| 20260504002010 | 8 | 158 | 1.6 | 19.3 | 0.00 | 0.00 | 0.00 | 70 | 1011.5 |
| 20260503235014 | 8 | 135 | 1.6 | 9.7 | 0.00 | 0.00 | 0.00 | 70 | 1011.6 |
| 20260503234014 | 8 | 113 | 1.6 | 3.2 | 0.00 | 0.00 | 0.00 | 71 | 1011.7 |
| 20260503233017 | 8 | 135 | 0.0 | 3.2 | 0.00 | 0.00 | 0.00 | 71 | 1011.9 |
| 20260503232015 | 8 | 135 | 0.0 | 3.2 | 0.00 | 0.00 | 0.00 | 71 | 1012.0 |
| 20260503231009 | 8 | 135 | 0.0 | 3.2 | 0.00 | 0.00 | 0.00 | 72 | 1012.1 |
| 20260503225007 | 8 | 135 | 0.0 | 11.3 | 0.00 | 0.00 | 0.00 | 68 | 1012.5 |
| 20260503222010 | 10 | 248 | 20.9 | 35.4 | 0.00 | 0.00 | 0.00 | 59 | 1013.5 |
| 20260503221009 | 11 | 248 | 14.5 | 46.7 | 0.00 | 0.00 | 0.00 | 55 | 1013.4 |
| 20260503220010 | 11 | 248 | 32.2 | 46.7 | 0.00 | 0.00 | 0.00 | 51 | 1013.4 |
| 20260503215013 | 12 | 248 | 22.5 | 33.8 | 0.00 | 0.00 | 0.00 | 48 | 1013.5 |
| 20260503214014 | 13 | 248 | 11.3 | 38.6 | 0.00 | 0.00 | 0.00 | 45 | 1013.2 |
| 20260503212013 | 15 | 248 | 11.3 | 33.8 | 0.00 | 0.00 | 0.00 | 33 | 1012.7 |
| 20260503211011 | 15 | 248 | 11.3 | 35.4 | 0.00 | 0.00 | 0.00 | 33 | 1012.7 |
| 20260503202013 | 16 | 225 | 16.1 | 27.4 | 0.00 | 0.00 | 0.00 | 33 | 1013.1 |
| 20260503201013 | 16 | 248 | 11.3 | 32.2 | 0.00 | 0.00 | 0.00 | 32 | 1013.2 |
| 20260503193008 | 17 | 225 | 12.9 | 38.6 | 0.00 | 0.00 | 0.00 | 32 | 1013.6 |
| 20260503191016 | 19 | 248 | 8.0 | 29.0 | 0.00 | 0.00 | 0.00 | 32 | 1013.7 |